Location: Wiesbaden
(50.0830°N, 8.2500°E)
Time: 20:36:31
(UTC+02:00)

ISS - Pass Details

Date: 21 July 2019
Orbit: 409 x 418 km, 51.6° (Epoch: 20 July)

Event Time Altitude Azimuth Distance (km) Brightness Sun altitude
Rises 02:13:21 0° 287° (WNW) 2,351 0.1 -18.8°
Reaches altitude 10° 02:15:27 10° 284° (WNW) 1,485 -0.9 -18.7°
Enters shadow 02:18:00 46° 262° (W) 561 -3.3 -18.7°
